This is the latest recevied weather packets stored in our database for station/object KB4KY. If no packets are shown the sender has not sent any weather packets the latest 10 day(s).
| Time | Temp. | Humidity | Pressure | Rain* | Wind** | Luminosity | Snow |
|---|---|---|---|---|---|---|---|
| 1778019768 | 21.67° C | 56% | 1006 hPa | 0 mm | - | - | - |
| 1778019504 | 21.67° C | 58% | 1006.1 hPa | 0 mm | - | - | - |
| 1778019473 | 21.67° C | 58% | 1006.1 hPa | 0 mm | - | - | - |
| 1778019162 | 21.67° C | 59% | 1006.1 hPa | 0 mm | - | - | - |
| 1778018866 | 21.11° C | 59% | 1006 hPa | 0 mm | - | - | - |
| 1778018562 | 21.67° C | 57% | 1005.9 hPa | 0 mm | - | - | - |
| 1778018265 | 21.67° C | 59% | 1006.1 hPa | 0 mm | - | - | - |
| 1778017961 | 21.67° C | 59% | 1006.2 hPa | 0 mm | - | - | - |
| 1778017661 | 21.67° C | 60% | 1006.3 hPa | 0 mm | - | - | - |
| 1778017363 | 21.67° C | 57% | 1006.4 hPa | 0 mm | - | - | - |
| 1778017060 | 21.11° C | 58% | 1006.3 hPa | 0 mm | - | - | - |
| 1778016760 | 21.11° C | 60% | 1006.3 hPa | 0 mm | - | - | - |
| 1778016460 | 21.11° C | 58% | 1006.3 hPa | 0 mm | - | - | - |
| 1778016160 | 21.11° C | 60% | 1006.3 hPa | 0 mm | - | - | - |
| 1778015981 | 20.56° C | 63% | 1006.3 hPa | 0 mm | - | - | - |
| 1778015861 | 21.11° C | 62% | 1006.4 hPa | 0 mm | - | - | - |
| 1778015559 | 20.56° C | 63% | 1006.3 hPa | 0 mm | - | - | - |
| 1778015259 | 20.56° C | 60% | 1006.4 hPa | 0 mm | - | - | - |
| 1778014958 | 20.56° C | 61% | 1006.6 hPa | 0 mm | - | - | - |
| 1778014658 | 20.56° C | 62% | 1006.7 hPa | 0 mm | - | - | - |
| 1778014358 | 20° C | 62% | 1006.9 hPa | 0 mm | - | - | - |
| 1778014061 | 20° C | 66% | 1007 hPa | 0 mm | - | - | - |
| 1778013757 | 20° C | 65% | 1007 hPa | 0 mm | - | - | - |
| 1778013458 | 20.56° C | 67% | 1007.1 hPa | 0 mm | - | - | - |
| 1778013329 | 20° C | 70% | 1007.3 hPa | 0 mm | - | - | - |
* Rain latest hour (hover to see other rain measurements)
** Current wind speed in m/s (hover to see current wind gust speed)